Theta_e
349 350 351 350 351 350 350 351 351 352 352 352 351 350 350 350 350 350 350 349 350 350 350 349 348 348 346 345 343 340 337 336 335 335 335 333 332 332 331 332 330 329 330 330 331 331 332 330 330 330 331 331 330 330 329 329 329 328 328 326 325 324 324 322 320 321 322 323 325 327 327 329 327 327 327 327 328 328 336 332 332 333 333 333 332
349 350 351 351 350 350 351 351 352 352 352 352 351 350 350 350 350 350 349 349 350 350 349 349 348 347 345 344 343 340 337 336 335 334 334 333 332 333 331 331 330 330 330 330 332 333 331 330 330 331 331 332 331 330 330 329 330 327 326 328 326 326 326 324 322 320 321 323 323 325 327 329 328 327 327 328 328 330 328 328 329 330 331 332 331
349 350 350 350 351 351 351 351 352 351 351 351 351 351 351 351 351 350 349 349 349 349 349 348 347 346 345 343 342 340 338 336 335 334 334 333 332 332 332 331 331 330 330 330 331 332 331 331 330 330 332 331 331 330 330 330 330 329 328 328 327 327 327 326 323 321 321 322 322 323 324 326 326 328 327 327 328 327 327 328 329 331 332 331 332
349 350 350 350 351 351 351 351 351 351 351 351 351 352 351 351 351 350 349 349 348 349 349 348 347 345 344 342 341 340 338 337 335 334 334 333 332 332 332 331 331 331 331 331 331 332 332 331 331 331 331 331 330 329 329 329 329 329 328 328 328 328 328 327 326 324 322 322 321 324 324 323 325 328 329 331 329 329 327 329 329 329 329 331 330
349 350 350 350 350 351 351 351 351 351 351 352 351 352 352 352 351 350 349 348 348 348 348 348 346 345 344 342 340 339 338 337 336 334 334 333 333 333 332 331 331 331 331 331 334 332 332 332 332 332 331 330 330 329 329 327 328 328 327 327 328 328 328 328 328 325 323 323 323 323 325 325 327 328 329 327 328 327 327 326 328 328 329 330 331
350 350 350 350 350 350 351 351 351 351 351 352 352 352 352 352 351 351 350 348 348 348 347 347 347 345 344 343 341 339 338 337 336 335 334 334 333 333 333 332 332 332 331 331 331 332 332 332 332 333 332 331 330 330 329 328 328 328 327 327 327 327 326 326 327 326 325 324 323 324 322 324 323 324 326 327 326 325 326 327 326 327 326 327 328
350 350 350 350 350 350 351 351 351 351 352 352 353 353 352 352 351 350 350 349 348 347 346 346 346 346 344 343 342 340 338 337 336 336 335 335 334 333 332 332 332 332 332 332 331 332 332 332 332 332 332 332 331 330 329 328 329 328 329 328 328 327 328 327 328 326 325 324 323 322 322 323 322 323 325 326 325 324 323 324 324 325 325 324 326
350 350 350 350 350 351 351 352 352 352 353 353 353 353 353 352 352 351 350 349 348 347 346 345 345 346 345 343 342 341 339 338 337 336 335 335 335 334 333 333 332 332 332 332 332 331 332 332 333 332 332 332 331 330 330 329 329 328 329 330 329 328 328 328 327 326 324 323 323 323 321 320 320 323 325 322 320 319 322 324 322 323 324 322 322
350 350 351 350 351 352 352 352 353 353 353 353 352 352 352 352 352 351 350 349 349 348 347 346 344 343 344 343 342 341 340 338 338 337 335 335 335 334 334 334 333 332 332 332 332 333 333 333 333 333 334 338 339 337 334 334 330 329 330 330 330 329 328 327 327 325 323 323 323 323 320 321 322 322 322 319 318 320 321 320 320 322 322 322 323
350 351 350 351 352 352 352 353 353 353 352 352 352 352 352 352 351 350 350 349 348 348 347 346 345 343 342 342 341 341 340 339 334 326 329 336 335 335 334 334 334 333 332 331 332 334 334 334 335 340 341 342 343 342 339 338 337 333 331 330 331 329 328 327 325 324 323 321 322 321 320 320 321 320 319 319 321 320 319 318 317 319 317 318 319
350 351 351 352 352 353 352 352 352 352 352 352 352 352 352 352 351 350 349 348 348 347 347 345 345 344 342 341 340 340 340 339 328 325 326 329 334 335 334 333 333 332 332 333 333 333 333 334 333 338 342 344 342 344 341 340 338 337 336 335 334 331 327 324 324 323 322 322 321 319 318 319 321 321 320 323 321 321 319 317 318 317 316 314 316
350 351 351 352 352 352 352 352 352 352 352 352 352 352 352 351 350 349 348 348 347 347 346 345 345 344 343 342 340 340 340 331 326 325 325 326 330 336 334 333 333 333 333 333 333 333 333 333 333 334 335 337 337 340 342 341 338 338 338 336 335 334 332 327 325 323 322 321 320 321 320 320 320 320 321 319 320 318 318 317 316 317 317 315 315
350 350 351 352 352 353 352 352 352 351 351 352 352 352 351 351 350 349 348 348 347 346 345 345 344 344 344 342 341 340 340 330 325 323 324 325 327 332 335 336 335 334 333 333 333 333 333 333 332 333 333 342 341 336 337 340 341 340 340 339 337 333 328 328 328 327 323 323 322 319 320 319 320 322 322 320 318 317 317 317 317 316 317 316 317
349 350 351 351 352 352 352 352 351 351 352 351 351 351 351 350 350 350 349 348 347 346 345 344 344 344 343 342 342 341 340 329 323 322 322 323 325 331 336 336 335 335 334 334 334 333 333 332 332 332 331 334 336 335 335 335 335 333 331 329 329 333 333 328 326 327 327 325 322 321 322 323 324 322 323 322 320 320 319 318 318 316 316 317 317
348 349 350 351 352 352 352 352 351 351 351 351 351 350 350 350 350 350 349 348 347 346 345 344 344 344 344 343 342 342 342 328 321 320 319 320 322 331 337 337 336 335 334 334 334 334 334 333 332 332 330 331 334 336 334 332 329 328 325 325 325 325 326 329 328 327 326 327 325 325 325 323 323 323 323 322 323 323 322 321 320 318 316 312 312
347 348 349 350 351 352 352 351 351 351 351 351 350 350 350 350 350 350 349 348 348 347 346 345 344 344 344 343 342 341 343 325 321 320 318 318 322 336 337 337 336 335 335 335 334 334 333 332 331 331 331 331 333 332 335 330 327 326 325 324 324 326 327 329 327 329 331 326 326 325 324 324 327 327 326 323 320 319 320 316 314 312 310 308 308
345 347 348 349 351 352 352 352 351 351 351 350 350 350 349 350 350 350 348 348 347 346 346 345 345 345 344 344 342 342 342 328 320 318 316 316 324 337 337 337 336 334 334 335 336 334 332 331 331 331 331 331 330 325 329 334 326 325 325 323 324 324 324 325 322 320 320 319 320 323 323 321 319 316 315 316 319 317 313 311 310 309 308 306 309
345 346 347 349 350 351 352 352 351 351 351 350 350 350 350 351 350 350 348 347 346 346 346 346 346 346 344 344 344 343 343 329 316 316 315 316 325 335 335 335 334 333 334 334 331 331 333 339 337 331 331 331 325 322 324 330 327 326 324 324 323 321 319 320 323 321 321 320 320 320 319 319 318 317 318 317 316 317 313 309 310 309 309 310 306
344 345 347 349 350 351 352 352 351 351 350 350 351 350 350 350 351 350 349 348 347 347 346 346 345 346 346 345 339 341 343 328 314 315 313 315 328 335 334 334 332 332 332 330 330 331 331 338 340 335 332 330 321 319 321 328 327 326 325 324 323 320 321 317 318 316 314 314 312 315 317 316 317 315 319 321 319 321 316 314 312 311 308 309 309
345 346 347 348 349 350 352 352 352 351 350 351 351 351 351 351 350 349 349 349 347 346 346 345 345 345 346 346 345 343 342 331 321 313 312 315 322 335 333 332 331 331 330 329 329 330 331 332 334 327 324 322 315 315 317 321 328 326 325 324 322 322 318 315 317 314 313 315 309 311 313 312 311 312 312 313 319 323 316 315 313 312 310 307 309
345 346 346 347 348 349 351 352 351 352 352 351 352 351 351 351 350 349 349 348 347 346 345 344 344 344 344 345 345 344 341 331 323 311 311 314 319 323 332 332 332 331 329 329 328 328 328 330 332 325 319 315 313 314 313 315 324 326 325 324 323 320 317 316 322 325 310 313 314 313 311 312 311 310 312 312 317 318 316 312 315 312 309 308 305
345 345 345 346 347 348 349 351 352 352 352 352 350 350 351 351 351 350 349 348 346 345 344 342 342 339 340 341 342 342 339 326 326 312 311 311 316 320 331 333 332 331 328 328 328 328 329 330 331 324 315 312 310 309 309 312 319 326 323 316 316 316 317 315 315 313 312 311 309 310 309 309 309 311 313 313 314 318 314 310 309 307 308 308 306
344 345 344 344 345 346 348 349 350 352 352 351 350 350 350 350 350 349 349 347 346 344 342 340 337 336 337 338 340 340 333 328 319 319 311 310 312 316 322 328 324 332 330 329 329 329 330 330 331 320 312 308 305 305 307 309 317 321 310 309 312 317 320 314 315 310 308 308 309 307 308 308 309 308 310 310 311 310 311 310 308 307 309 313 312
343 343 343 343 344 345 347 348 349 351 351 351 350 349 349 349 349 349 348 346 344 340 338 337 336 336 337 337 336 334 331 329 319 316 316 310 311 312 315 319 320 329 331 331 330 330 328 328 326 310 307 302 303 305 307 313 321 306 305 310 313 318 316 315 309 309 310 308 308 306 305 305 306 306 309 313 310 309 309 309 309 306 306 307 307
341 342 342 342 342 342 343 345 347 349 350 350 349 349 349 349 348 347 347 345 342 339 337 337 337 337 336 334 333 331 332 332 329 322 317 312 311 310 313 314 316 319 330 330 333 330 323 317 311 305 304 302 304 306 309 312 309 305 307 311 318 312 312 309 308 309 306 306 306 307 306 310 311 311 312 309 312 310 309 308 307 307 306 306 306
340 340 341 341 342 342 342 343 346 348 349 350 350 350 349 348 347 344 344 342 340 338 337 337 337 336 335 333 331 330 330 331 329 325 323 318 316 312 314 315 321 323 327 328 324 322 316 312 308 306 306 308 313 316 317 315 310 310 309 313 314 312 310 308 307 307 306 306 308 308 309 307 309 310 310 309 308 306 305 305 305 307 305 305 305
341 342 343 343 343 343 343 344 345 347 348 350 351 350 350 348 345 342 342 341 339 338 337 337 336 335 334 332 331 330 329 328 325 322 320 318 318 317 317 319 321 321 328 327 323 322 316 316 314 312 312 313 317 317 318 314 312 310 311 312 311 311 311 309 308 308 308 306 308 308 306 308 308 310 309 307 307 306 305 308 305 303 305 304 302
343 343 344 344 344 344 344 345 346 347 349 350 349 349 348 347 344 341 341 341 339 338 338 336 335 334 333 332 330 330 328 325 322 320 318 318 318 318 321 325 325 327 325 323 322 321 318 312 312 316 316 316 316 315 314 314 314 312 310 309 310 311 313 315 314 307 305 306 306 306 308 308 307 308 308 306 304 304 305 307 306 303 305 302 298
341 342 343 343 343 342 340 340 343 346 348 349 349 349 348 346 344 343 345 345 344 341 338 336 334 335 334 332 330 328 328 324 323 315 319 314 318 320 322 325 326 327 321 315 321 319 317 317 316 315 316 316 315 313 312 311 311 310 310 308 309 309 310 309 310 309 307 306 308 308 309 307 307 307 307 303 304 305 303 302 303 301 301 299 300
337 338 339 339 339 340 340 339 337 337 339 335 330 319 311 304 318 342 340 329 326 324 325 334 335 335 334 334 333 331 329 330 314 308 307 306 307 311 313 313 314 319 312 313 319 318 318 317 317 316 315 316 315 313 312 311 312 310 310 311 310 308 308 310 310 309 309 309 309 307 308 308 307 305 301 303 303 302 302 305 301 302 300 298 298
338 336 336 337 337 338 335 332 331 332 332 334 333 326 322 315 299 296 311 324 320 315 315 316 319 324 334 333 330 322 319 310 305 305 303 304 304 304 305 304 305 304 307 318 320 319 317 317 316 316 316 316 316 315 315 313 313 311 311 310 310 311 312 310 310 308 309 309 309 308 307 306 304 301 302 303 303 302 302 302 302 301 299 300 298
334 333 333 333 332 331 331 330 329 328 327 329 330 329 327 319 313 301 297 304 310 310 309 311 313 315 318 323 324 323 309 304 303 302 302 302 303 302 301 301 301 303 306 313 321 318 319 318 316 315 315 314 316 316 315 313 312 312 310 309 310 311 311 311 310 309 309 308 307 308 306 304 302 301 301 301 303 301 298 299 299 299 300 299 299
336 334 333 333 331 329 328 328 328 328 327 327 328 329 325 321 317 316 312 302 300 302 307 309 308 310 311 312 314 313 309 304 302 301 301 301 300 301 300 299 300 302 307 319 321 318 318 318 317 315 315 315 315 315 314 313 312 312 311 311 311 310 311 311 308 309 310 309 308 306 304 303 303 303 303 303 300 296 298 299 298 298 299 296 298
336 335 334 333 330 328 328 327 327 327 328 328 328 328 326 324 321 320 319 318 318 309 303 301 304 306 308 308 308 306 303 301 302 301 300 300 300 300 300 302 298 300 312 322 320 318 317 316 315 315 315 315 314 314 314 312 312 311 311 310 310 310 309 306 306 307 306 305 303 303 303 301 302 299 297 296 297 297 297 298 297 296 295 295 296
336 336 334 334 330 329 328 327 327 327 328 328 327 326 325 324 323 323 323 322 322 320 317 313 303 304 313 307 304 303 302 301 301 300 299 298 298 298 302 311 312 311 313 315 319 318 316 316 315 315 314 314 314 314 313 312 312 311 310 309 306 305 304 305 306 305 304 302 302 301 301 300 298 298 297 296 295 295 296 298 297 296 294 296 297
338 336 335 334 331 330 329 328 327 327 327 327 326 325 325 325 326 325 323 324 319 315 310 307 307 304 301 299 298 300 300 299 299 298 298 298 299 305 316 316 316 316 317 316 317 316 316 315 315 314 314 314 314 313 312 312 311 310 307 307 307 305 305 305 305 304 303 301 300 300 299 297 296 297 295 295 295 296 295 297 297 298 299 297 298
336 336 335 333 332 331 330 329 328 326 325 323 324 325 325 325 324 324 322 319 317 314 311 309 311 312 310 308 301 297 297 297 298 297 297 299 301 315 321 319 318 317 317 316 315 315 315 315 315 314 314 314 313 313 312 311 310 309 308 306 304 303 303 302 302 304 300 298 298 298 297 296 294 295 295 297 297 296 296 299 298 298 299 301 302
334 334 334 334 333 331 329 327 324 324 325 326 326 326 325 324 323 322 320 318 316 314 313 315 317 317 315 308 311 307 301 298 298 298 298 298 308 318 318 319 319 318 317 316 316 316 315 314 314 314 313 313 312 310 310 309 308 307 307 305 304 303 308 306 307 302 300 299 298 297 298 296 294 295 298 297 296 295 296 299 296 295 297 299 298
332 325 324 326 327 330 329 327 326 326 326 325 325 325 324 323 322 321 319 318 317 317 317 317 318 317 312 308 307 308 310 310 311 308 308 311 315 318 317 318 317 316 317 316 317 316 314 313 314 313 313 312 311 309 309 308 307 306 305 304 303 301 303 301 302 300 300 299 299 297 296 296 296 295 297 296 296 295 294 295 295 296 295 295 296
330 330 326 324 328 328 329 329 329 327 327 326 326 325 324 324 322 320 320 319 317 317 317 318 317 314 310 310 310 313 316 315 315 313 312 313 315 316 316 316 316 315 316 315 316 315 313 312 312 312 311 309 309 308 308 308 307 306 305 304 303 302 302 301 301 300 300 299 298 298 297 296 296 296 296 294 295 293 294 296 297 297 296 295 296
328 330 330 324 324 328 331 329 328 327 326 327 326 325 324 323 322 322 320 319 318 318 318 318 316 313 310 309 307 311 320 318 317 316 316 315 316 315 315 315 315 314 315 315 315 314 312 311 311 311 310 309 308 308 307 306 305 305 304 304 303 303 303 301 300 300 299 299 299 298 297 295 297 296 295 296 301 298 296 297 297 296 296 297 296
328 326 327 327 327 328 327 327 326 328 327 327 325 325 325 324 322 321 321 321 320 319 318 317 315 313 307 303 301 305 319 319 318 317 317 317 316 315 315 314 314 315 315 315 314 313 312 311 311 310 309 309 308 307 307 305 305 305 304 303 302 302 302 301 301 300 299 298 298 297 296 297 299 297 297 301 296 294 294 295 295 296 295 296 297
327 326 327 328 327 327 326 326 327 327 326 325 324 328 327 324 322 321 321 321 320 319 318 315 313 311 308 303 304 305 313 316 320 317 316 315 314 314 314 314 314 314 314 314 314 314 313 312 312 310 310 310 309 309 308 307 306 305 304 303 302 302 302 301 300 300 298 298 297 299 298 298 299 296 296 299 294 295 295 296 297 296 296 295 296
326 326 326 326 326 326 325 325 325 325 326 327 327 326 326 323 322 322 320 319 318 317 317 316 313 310 308 304 303 306 312 314 315 314 314 314 313 313 313 312 312 311 312 313 313 313 313 312 311 310 309 309 309 309 309 308 307 305 304 303 303 303 301 301 301 300 299 298 297 298 297 298 300 297 299 299 294 296 296 297 297 297 296 296 296
323 325 326 325 324 324 324 324 323 324 326 327 325 326 326 323 322 321 320 319 319 317 316 314 313 311 309 307 308 309 312 313 314 314 313 313 313 313 313 312 311 311 311 312 312 312 312 312 311 310 309 308 307 309 308 306 306 305 304 304 303 304 302 300 300 298 298 297 298 298 297 298 295 295 296 298 297 295 297 296 296 301 297 296 296
324 324 324 322 322 323 322 323 325 323 324 324 324 324 323 323 322 322 321 320 319 317 315 314 312 311 310 309 310 311 312 312 313 312 313 312 312 312 312 312 312 311 311 312 311 312 312 312 311 310 310 308 306 306 305 304 304 303 302 302 302 302 300 298 297 298 297 297 297 297 298 296 293 295 302 296 296 295 293 296 296 297 296 296 296
322 323 322 322 321 321 320 321 320 320 320 322 322 323 322 322 321 322 323 321 319 319 315 313 312 311 310 310 310 311 313 313 312 312 312 312 312 312 312 311 312 311 310 311 310 311 312 312 310 310 309 306 305 304 302 300 300 299 299 297 297 297 296 297 299 299 298 297 298 296 296 296 296 298 301 301 297 297 298 297 297 298 297 298 296
321 321 320 321 320 320 321 321 322 323 321 320 320 321 320 321 322 322 321 321 319 317 315 314 312 311 312 311 311 312 313 313 313 313 313 313 312 312 313 312 313 312 311 310 310 310 311 310 308 307 307 306 304 302 300 297 296 296 296 297 297 296 298 299 297 296 296 296 295 294 294 292 293 292 294 293 293 295 296 295 298 298 298 298 299
321 321 321 321 321 320 319 320 321 318 318 319 319 320 320 321 320 321 321 320 318 317 315 314 312 312 311 311 312 312 313 314 313 313 313 313 313 313 313 313 313 312 312 311 310 310 310 308 308 307 306 305 304 302 300 298 296 296 296 295 297 300 296 296 296 295 295 295 292 291 290 290 291 293 295 296 295 295 295 296 296 298 298 299 298
321 322 322 322 322 320 321 320 319 318 318 319 318 317 317 318 319 319 319 319 318 317 315 314 313 312 312 311 312 312 313 313 313 313 313 312 312 312 313 313 312 312 312 311 311 310 309 308 307 306 306 304 303 301 300 298 297 297 296 296 296 294 294 295 296 297 294 291 290 290 291 291 291 292 293 293 294 294 294 296 297 298 299 297 297
325 324 323 323 322 321 321 321 320 320 320 318 317 317 318 318 318 317 317 316 316 316 315 314 313 312 312 312 313 313 313 313 313 313 312 312 311 311 311 312 313 312 312 311 311 310 309 308 307 306 305 305 303 302 300 298 297 297 296 294 293 293 293 293 293 291 292 292 290 291 292 292 292 291 291 290 289 291 297 299 299 298 297 297 298
Wind_Speed
18 17 15 16 15 16 16 14 15 13 13 13 13 12 11 11 11 10 7 9 9 9 9 9 10 10 10 10 10 9 9 8 8 8 8 8 8 8 8 8 8 7 6 6 5 5 6 6 6 5 4 4 5 5 4 4 3 4 3 4 4 3 5 5 5 6 4 2 3 3 2 0 2 3 3 3 4 3 3 3 3 3 3 4 4
18 18 16 15 17 16 16 14 14 12 14 14 14 13 12 12 10 9 10 10 10 10 10 9 9 10 10 10 10 9 9 10 9 8 9 9 9 7 8 8 8 7 6 7 7 6 6 7 7 6 4 5 5 5 6 4 4 4 3 5 5 5 5 5 5 4 6 2 3 3 3 2 3 1 3 5 6 3 5 4 3 2 3 3 3
18 16 16 15 17 15 14 14 14 15 15 14 15 14 13 12 10 11 10 9 9 10 10 10 10 11 10 10 10 10 10 10 9 10 10 11 11 9 8 9 9 9 9 9 8 6 6 7 7 6 4 5 5 5 4 5 4 5 5 4 5 5 5 4 3 4 5 5 2 3 3 2 3 5 4 2 3 2 4 6 5 5 4 3 5
16 16 16 16 16 15 16 14 15 15 16 15 16 15 13 12 11 11 11 9 10 9 9 10 10 11 11 11 11 11 11 11 10 11 12 12 11 11 10 10 10 10 10 9 7 7 8 7 7 6 5 6 5 5 4 4 5 5 4 4 4 5 4 3 4 4 4 5 3 3 3 3 5 4 4 4 4 4 3 5 3 4 4 5 5
16 16 16 16 16 16 16 15 15 16 16 15 16 15 14 12 11 12 11 10 10 9 9 9 10 11 12 12 12 12 12 12 12 11 10 10 11 11 10 9 9 10 9 9 8 8 7 8 7 6 6 6 5 5 4 4 4 4 4 4 4 5 3 3 5 3 4 6 5 3 2 2 3 3 1 3 4 3 3 3 4 5 6 6 5
17 16 16 16 16 17 16 16 17 17 17 15 16 15 13 12 12 11 12 12 10 10 11 10 11 12 13 13 13 13 12 12 13 13 12 10 10 10 9 10 10 10 8 8 8 8 8 8 7 7 7 8 7 5 4 5 4 4 4 4 4 3 4 4 3 4 5 7 6 6 2 4 3 2 0 1 2 5 6 5 4 4 4 6 6
17 17 17 17 16 17 17 17 16 15 15 15 13 12 13 13 13 13 12 12 12 11 11 12 11 12 13 12 13 13 13 12 12 12 11 11 11 10 10 10 9 8 8 8 8 7 7 7 7 8 8 8 7 6 5 4 5 5 6 6 5 4 5 5 5 5 6 6 5 5 5 3 1 5 2 1 1 2 3 6 6 3 3 4 7
17 17 17 17 18 18 18 16 15 15 14 13 12 12 12 12 13 12 11 13 13 13 13 13 12 12 13 13 13 11 12 12 12 12 11 11 11 10 10 10 10 8 7 7 6 6 7 7 7 8 8 7 7 5 6 6 5 5 5 5 5 5 6 5 5 5 5 5 6 6 3 3 1 2 1 2 2 3 1 2 6 7 7 3 3
18 17 17 18 18 18 16 14 13 13 13 13 13 13 13 13 12 11 12 12 11 13 13 13 12 12 12 12 12 11 12 13 12 12 12 12 11 11 11 10 10 9 5 3 1 2 5 7 8 8 8 9 10 8 8 8 6 7 6 6 6 6 6 5 5 5 5 5 6 4 4 5 5 4 6 3 3 5 3 0 3 5 6 7 6
17 17 18 19 17 16 15 13 13 13 13 14 14 13 12 12 12 12 13 13 13 13 13 12 13 13 13 12 11 11 12 11 14 18 16 13 12 10 9 10 9 6 5 2 2 9 11 9 8 10 11 11 11 11 11 11 11 9 7 7 7 7 6 6 6 6 5 4 6 5 5 6 6 4 3 3 3 3 4 3 4 5 4 5 6
17 18 19 18 15 15 14 14 13 14 14 13 12 12 12 11 12 13 13 14 14 13 13 14 13 13 13 13 13 12 11 11 18 17 19 19 14 11 10 9 6 6 8 11 13 10 9 9 4 6 8 9 8 12 12 12 13 13 12 11 9 8 7 6 5 4 6 6 3 1 3 6 7 3 3 5 3 3 4 3 4 3 4 4 6
18 19 19 14 14 15 15 14 14 15 14 14 14 13 12 12 13 13 14 14 13 13 14 15 14 13 12 12 13 13 13 15 18 19 20 20 18 12 8 8 8 9 10 10 9 8 10 7 5 6 5 6 6 6 9 13 13 13 13 12 12 11 8 8 7 5 3 1 4 7 5 5 5 3 4 2 4 3 3 3 3 4 5 4 4
17 17 16 14 15 15 14 15 15 14 15 15 13 12 13 14 15 14 16 15 12 14 15 15 15 14 13 13 14 14 13 16 18 19 20 21 20 12 8 9 10 12 10 8 8 9 8 6 6 6 6 9 7 6 6 7 11 13 11 10 9 9 8 5 3 4 4 5 6 5 5 3 4 4 2 2 1 3 4 5 4 4 4 5 5
17 17 16 16 15 15 15 15 16 16 14 13 13 14 15 17 17 15 13 12 14 15 14 16 14 14 14 14 14 13 13 15 19 20 20 21 17 13 11 11 6 4 6 7 8 8 8 8 8 7 6 6 6 6 6 7 5 4 4 4 4 4 5 5 5 8 8 6 5 4 3 4 5 3 2 1 3 4 4 6 4 4 4 6 4
19 18 17 15 14 14 16 16 16 15 14 14 14 16 17 16 16 14 14 15 16 16 16 15 14 15 15 14 13 13 13 18 19 20 20 18 17 14 10 10 9 8 9 8 7 9 9 8 8 8 6 6 6 8 8 6 5 5 4 4 4 2 3 4 4 3 3 4 5 4 4 3 3 4 5 4 5 5 5 5 5 3 3 2 3
17 15 14 15 15 16 16 16 15 14 15 15 16 17 17 17 17 15 14 13 13 12 11 13 14 14 14 14 14 14 13 18 19 20 19 17 20 11 11 13 15 11 9 8 9 10 7 7 6 6 6 6 8 13 10 6 6 6 6 4 3 3 3 2 4 4 4 4 4 3 3 3 4 4 4 4 4 3 3 2 1 0 2 4 5
16 15 15 16 16 16 16 17 16 16 16 17 18 17 17 17 16 13 14 14 14 14 15 14 13 14 16 15 15 14 13 15 19 19 18 20 17 11 14 15 13 11 10 12 13 12 7 5 6 6 5 6 9 13 11 10 6 6 5 4 4 4 4 3 5 7 6 5 4 3 4 5 5 6 7 7 4 3 1 2 4 1 2 3 3
17 16 16 17 17 17 17 17 17 17 16 19 18 17 17 15 15 13 15 15 15 16 14 12 13 14 15 16 16 15 13 14 19 19 19 22 19 14 12 11 11 8 10 12 8 8 7 12 9 6 7 7 11 13 11 9 6 5 5 5 4 4 3 3 3 2 3 4 5 0 3 3 4 6 6 6 4 4 4 2 2 1 1 4 4
16 16 17 17 17 16 16 17 17 18 18 18 17 18 17 16 14 13 14 14 14 12 11 12 13 12 14 15 17 17 12 11 17 18 21 23 20 15 13 10 11 13 12 10 8 7 6 9 12 11 9 10 13 11 11 8 6 6 6 5 4 3 5 5 5 3 1 1 0 2 1 2 2 2 3 6 6 5 5 4 3 3 3 5 5
16 16 17 16 14 14 15 18 19 19 20 18 17 18 15 13 14 14 14 13 12 11 12 12 13 12 11 12 12 14 11 8 13 18 21 23 23 14 11 9 11 13 11 10 8 6 6 6 10 15 15 13 11 13 13 11 7 6 5 5 4 4 2 5 4 4 3 1 1 1 3 3 2 2 2 2 3 1 4 4 4 4 4 4 4
16 16 16 14 14 16 16 17 20 19 18 18 17 16 14 15 15 15 15 13 11 11 11 10 9 8 7 8 9 10 9 10 12 19 21 23 21 20 13 13 14 12 10 9 7 7 6 7 6 11 14 13 15 15 14 13 10 5 6 5 5 4 7 5 6 7 3 2 1 1 2 3 3 3 2 2 1 1 2 3 3 3 4 4 5
16 15 13 13 13 14 15 15 17 15 15 13 13 15 15 15 15 16 13 12 12 11 8 6 6 6 6 8 9 10 9 13 10 16 21 21 22 22 12 14 14 10 9 8 7 6 7 6 7 10 14 14 15 13 12 11 10 4 5 7 9 11 8 4 5 4 3 2 0 1 1 2 2 2 2 2 3 3 4 4 4 4 4 5 5
7 8 9 10 11 12 13 14 13 11 11 13 14 14 11 12 12 11 12 11 10 10 10 10 10 9 8 8 8 5 6 7 12 13 17 21 21 20 22 14 14 10 9 8 8 7 6 7 7 12 14 14 13 13 11 11 9 6 10 11 11 10 7 5 4 4 3 1 0 1 2 1 2 3 3 4 5 4 4 4 4 3 3 3 4
6 7 7 7 9 10 11 13 13 12 13 13 13 13 12 13 13 12 13 12 11 11 9 10 10 10 11 8 5 7 9 9 7 7 8 13 17 18 18 14 14 9 8 7 7 7 7 6 7 12 13 13 11 11 11 11 7 10 11 10 10 8 4 5 3 4 2 2 2 2 3 2 2 4 4 5 6 4 5 4 5 4 3 4 3
8 9 10 9 9 7 6 6 7 7 8 9 10 11 12 13 13 12 12 11 12 12 12 12 13 12 10 9 8 8 8 8 8 11 16 14 12 15 14 10 13 12 8 5 6 6 8 10 12 12 12 11 12 10 8 7 9 9 10 10 10 4 5 5 5 4 4 4 3 3 3 3 5 4 5 5 5 3 3 3 3 3 2 2 3
9 10 11 11 11 11 11 10 10 10 10 10 12 12 14 13 12 11 11 11 12 13 14 14 14 13 11 11 11 11 10 10 8 7 10 10 9 12 15 11 13 13 11 8 11 11 10 10 11 12 11 10 9 6 5 5 7 8 8 9 4 5 4 5 4 5 6 4 3 5 5 3 3 5 4 4 4 6 2 2 3 6 5 4 6
12 11 11 10 10 11 14 12 12 12 12 12 13 13 12 11 12 12 14 14 15 15 15 15 14 13 11 12 12 12 10 9 8 8 8 9 8 8 11 8 9 10 8 5 7 6 7 7 7 7 7 9 8 7 7 9 7 5 4 4 3 4 4 5 6 6 4 4 4 5 5 4 3 3 5 4 5 5 2 2 3 5 2 2 1
14 14 16 15 14 14 14 20 20 15 17 17 15 13 12 14 15 16 17 18 18 18 18 16 14 12 12 12 12 11 10 9 9 11 10 10 8 8 9 8 8 8 7 6 6 7 8 10 10 7 7 6 5 4 4 4 4 4 3 3 3 3 4 5 4 3 3 4 3 2 2 2 4 6 5 5 6 6 2 1 1 3 2 1 2
7 9 11 11 13 11 6 1 4 11 17 17 16 17 19 18 17 16 17 16 18 18 13 9 8 7 9 12 12 12 10 12 13 14 17 17 15 12 10 10 8 7 9 13 9 7 7 7 6 6 6 7 5 5 5 4 3 3 3 3 3 4 4 5 5 6 5 3 5 5 6 4 5 5 5 5 5 5 1 1 1 2 2 0 1
6 5 4 4 3 5 7 9 9 6 4 8 11 7 11 9 2 12 13 12 16 20 22 17 16 14 12 10 12 16 16 13 17 22 21 19 17 19 16 15 14 11 14 17 12 9 8 8 7 7 7 6 6 6 6 5 5 5 4 4 4 4 4 5 6 5 4 5 5 5 5 5 6 6 5 6 4 4 1 1 2 1 1 1 3
7 6 1 1 6 9 10 10 9 9 10 11 10 10 7 7 14 14 7 14 24 25 25 27 29 26 22 14 9 7 10 18 23 22 22 20 19 16 15 16 16 18 18 12 7 9 7 8 7 6 7 7 7 7 6 6 6 5 6 5 5 5 5 6 7 4 4 5 5 5 5 5 7 6 5 3 2 4 3 0 1 1 1 1 3
3 3 1 2 6 7 7 8 9 10 10 10 12 13 13 10 9 14 19 11 9 22 20 24 26 25 22 19 14 6 12 18 21 22 22 22 20 17 16 17 18 20 18 16 9 7 8 8 8 7 7 7 6 6 6 6 6 6 5 5 6 6 6 7 5 5 5 4 5 5 6 7 6 4 4 3 2 2 2 3 2 2 3 2 2
4 1 0 1 2 2 4 7 8 10 10 8 7 10 11 11 13 11 13 22 21 12 13 22 22 22 23 23 24 20 16 17 21 21 21 19 19 17 16 17 18 17 14 9 8 8 7 7 8 7 7 7 7 7 6 6 6 6 6 6 6 5 6 5 3 5 5 6 6 7 7 6 4 4 3 1 1 2 1 2 2 1 0 2 4
7 9 8 7 4 2 1 5 8 8 9 9 10 13 14 13 14 17 17 12 13 14 16 14 5 17 20 23 22 23 22 21 20 21 20 19 18 17 15 10 10 13 12 9 8 8 7 7 6 7 7 6 6 6 6 6 6 6 5 5 5 3 3 2 4 5 5 5 6 6 4 5 4 3 2 1 2 2 3 2 1 1 3 3 4
2 4 5 7 6 8 7 2 7 12 11 10 7 7 9 11 14 15 15 16 15 14 10 5 9 6 9 13 19 22 22 21 20 18 18 19 19 18 17 11 7 3 3 2 6 7 8 8 8 7 7 7 6 7 7 6 6 6 6 4 3 3 3 5 5 5 6 6 6 4 4 4 4 3 3 3 3 3 2 1 1 1 2 3 3
3 3 1 3 4 2 4 5 5 3 4 8 8 6 4 3 7 10 12 15 16 14 9 6 3 4 10 12 15 17 19 20 20 20 20 20 21 21 12 9 9 8 8 7 7 6 7 7 7 7 6 6 6 6 6 7 7 6 5 5 6 6 6 5 5 5 5 5 5 4 4 4 4 3 3 2 4 4 2 2 2 2 2 3 3
6 5 4 3 3 1 1 1 1 3 4 5 8 10 9 7 5 8 10 11 12 12 11 9 8 6 7 8 13 17 17 15 16 19 21 22 23 15 10 12 11 10 9 8 7 6 7 7 7 7 7 7 7 7 6 6 6 5 5 6 6 6 6 6 6 5 5 5 5 4 5 6 6 4 6 6 5 4 2 1 1 1 1 1 2
8 8 7 6 2 2 2 4 5 7 6 7 7 8 9 9 8 9 10 10 11 12 11 9 8 10 10 5 7 7 14 15 18 13 9 10 10 7 7 7 8 10 10 8 8 8 8 7 7 7 7 7 7 7 6 6 6 6 7 6 6 6 7 6 5 5 4 5 6 6 6 6 6 6 5 4 4 2 1 1 2 1 1 2 1
10 16 18 15 10 8 5 4 4 7 8 9 8 8 9 9 9 8 8 8 9 9 9 8 7 7 7 7 9 11 15 9 9 10 10 9 8 7 7 7 7 7 7 8 8 7 7 7 7 6 7 7 7 7 7 7 7 6 6 6 6 4 5 4 5 6 6 7 7 7 7 7 6 7 6 6 3 3 3 3 1 1 1 2 4
8 6 9 14 10 10 8 9 7 3 8 10 9 10 8 6 8 7 6 6 8 8 8 8 7 7 7 8 9 9 9 9 9 10 9 9 8 7 7 7 7 8 8 7 7 7 7 7 7 7 7 6 7 7 7 7 7 7 6 7 7 6 6 6 7 7 7 7 7 7 7 7 7 6 5 5 4 4 4 3 1 1 1 2 3
5 6 7 9 9 8 7 5 6 10 4 5 7 8 8 8 9 8 6 5 7 8 7 8 8 7 7 10 15 14 11 10 9 9 10 11 9 8 7 7 7 7 7 8 8 7 7 7 7 7 7 7 7 7 7 7 7 7 7 6 6 6 6 6 6 7 7 7 8 8 7 6 4 6 6 5 3 4 3 1 1 1 1 1 2
5 5 6 6 7 6 5 3 4 2 3 3 5 5 7 7 7 9 9 8 7 8 7 6 6 5 6 10 11 8 7 9 9 9 8 8 8 8 7 7 6 7 8 8 8 8 7 7 7 7 7 7 7 7 6 6 7 7 6 6 6 6 6 7 7 7 7 8 8 7 6 5 6 6 4 4 4 4 2 1 0 0 1 1 2
7 6 6 5 5 4 2 1 1 1 4 0 1 4 6 7 7 5 5 4 5 4 5 7 7 6 6 7 6 2 5 6 7 8 8 8 7 7 7 7 7 7 7 7 7 7 8 8 7 7 8 8 8 8 8 8 7 7 6 6 6 7 7 7 7 7 7 7 8 6 6 6 6 5 4 4 3 3 1 1 0 0 1 2 2
6 5 6 5 5 5 5 2 4 2 3 4 2 1 5 5 5 6 6 7 8 7 3 2 5 7 7 6 4 3 6 6 6 7 7 7 7 7 6 6 6 6 6 6 6 6 7 7 7 7 6 7 7 6 7 7 7 7 7 7 6 6 6 6 8 9 8 8 7 6 6 6 5 6 5 3 4 3 2 1 0 0 1 2 2
4 4 4 6 5 4 3 3 1 1 3 3 2 3 7 7 7 5 6 7 6 5 8 7 5 6 7 7 6 5 6 6 6 6 6 7 7 7 6 6 6 6 6 6 6 6 6 7 7 6 6 5 6 6 6 6 6 7 8 8 8 8 9 9 8 7 7 7 7 6 6 6 6 5 5 4 3 3 2 2 1 1 1 2 2
4 4 4 3 3 2 1 1 1 3 5 5 7 6 6 7 7 7 6 6 6 7 7 7 6 6 7 8 7 5 6 6 6 6 6 6 6 6 6 6 5 5 6 6 6 6 6 6 7 7 7 7 6 6 6 6 6 6 5 6 8 8 7 7 5 6 7 7 7 7 7 5 5 5 5 5 4 3 2 2 1 2 2 2 3
7 6 6 5 4 4 4 6 6 3 2 3 3 4 5 5 5 5 6 6 7 7 7 7 7 7 7 7 7 6 6 6 7 6 7 6 6 6 5 5 5 5 4 5 5 6 6 6 6 7 7 7 6 6 6 6 6 6 5 6 5 4 4 6 7 7 7 7 6 6 6 6 6 4 4 3 3 2 2 2 2 1 1 1 2
6 6 6 6 5 4 4 3 2 1 2 5 4 4 4 3 5 6 5 6 6 6 6 6 6 6 6 6 5 5 5 5 5 5 5 5 5 5 6 6 6 6 5 5 5 5 5 6 6 6 7 7 7 6 6 6 5 6 5 5 6 6 7 7 4 5 5 6 6 6 6 6 4 4 4 4 4 3 2 2 1 1 1 1 2
7 6 6 6 6 5 5 5 4 4 4 5 6 4 2 3 0 1 6 6 7 7 7 7 6 6 6 6 6 6 5 5 5 5 5 5 6 6 7 7 6 6 6 6 5 5 6 6 7 7 8 7 7 7 7 7 7 6 6 5 7 10 11 11 7 6 7 6 5 4 4 4 4 4 4 3 3 3 2 1 1 1 1 1 2
6 6 6 5 5 5 4 5 5 4 4 4 6 2 4 3 2 2 1 5 6 6 5 5 6 6 7 7 7 7 6 6 6 6 6 6 6 7 7 7 6 6 6 6 6 6 6 6 7 7 7 7 7 7 7 7 7 7 6 7 10 12 12 12 10 9 8 6 6 5 6 5 4 4 4 4 4 3 2 1 1 1 1 2 3
3 4 5 4 4 4 4 6 7 7 7 7 5 3 4 5 3 2 4 3 3 4 5 5 6 6 6 6 7 7 7 6 5 5 6 6 6 6 6 6 6 6 5 6 6 6 7 7 7 7 7 7 7 7 7 7 7 7 9 11 13 13 13 11 8 10 10 6 5 5 5 5 5 5 4 4 4 4 2 2 1 1 1 1 1
Wind_Direction
201 205 201 204 200 199 200 201 201 198 195 197 201 203 200 199 199 198 187 198 192 192 190 185 181 182 180 186 187 185 185 186 185 183 188 193 195 195 188 188 194 203 194 203 203 191 195 198 201 208 185 189 207 205 202 197 174 186 176 172 191 181 160 172 197 249 296 233 240 262 308 251 301 214 243 276 295 293 263 245 237 223 231 238 252
202 201 200 200 200 200 201 200 199 195 196 198 203 202 199 199 194 186 193 199 194 195 190 184 181 182 185 189 189 186 188 188 185 182 189 193 197 193 191 187 193 199 196 205 204 201 192 200 209 208 190 196 199 204 203 194 183 188 190 186 206 202 210 166 206 207 255 320 316 312 296 219 260 249 236 286 291 314 318 310 300 277 280 276 263
199 196 198 198 200 200 199 200 196 196 196 199 205 201 199 194 186 190 194 195 197 196 189 184 180 182 188 190 190 191 190 191 189 187 192 193 194 195 191 188 192 197 203 210 206 199 198 205 211 204 190 204 213 213 197 195 182 187 204 198 212 221 214 212 167 215 243 270 271 293 285 296 221 276 283 253 279 308 310 310 317 319 300 288 285
196 197 198 199 197 198 201 199 196 197 198 202 204 201 196 192 185 192 192 189 193 195 188 185 180 184 189 190 194 194 193 195 193 194 194 193 194 192 190 193 197 201 204 206 204 199 206 205 212 200 191 202 215 216 212 191 183 191 202 210 214 226 223 214 220 198 207 236 290 226 266 258 283 277 292 312 316 318 294 295 297 292 296 299 291
195 197 197 197 196 200 202 198 199 199 201 202 205 200 196 190 187 192 188 191 191 186 189 184 184 187 191 193 195 198 198 196 196 197 197 195 195 193 193 194 200 204 205 205 202 201 204 209 202 193 190 201 213 215 210 206 199 188 205 213 213 228 222 206 225 222 214 231 261 261 253 272 262 282 304 307 317 315 316 307 307 307 305 295 289
196 194 194 196 198 200 201 201 201 200 201 203 204 200 195 191 189 191 189 191 186 187 186 187 190 194 196 195 196 199 197 198 200 198 195 195 199 198 194 196 202 203 203 206 207 205 207 210 199 194 197 201 211 203 197 206 194 197 207 216 220 223 224 226 219 221 228 241 238 274 263 254 300 296 193 182 294 318 320 314 318 305 294 306 298
193 193 195 197 197 201 201 203 200 200 200 203 201 199 197 194 190 191 187 189 186 186 190 191 197 195 198 196 199 198 199 200 202 199 196 197 199 197 196 200 206 205 207 209 212 211 215 211 202 202 207 209 206 199 191 190 193 205 206 212 214 213 224 226 213 214 222 240 255 244 268 286 265 289 350 40 355 257 273 316 311 294 299 298 305
192 196 195 196 198 201 203 200 199 199 199 199 199 199 197 195 194 188 182 187 188 188 190 194 197 198 198 200 201 197 199 203 203 200 196 197 200 201 197 200 205 205 208 211 211 217 222 219 211 208 210 210 202 191 176 193 191 210 210 205 204 206 223 225 217 219 227 235 244 261 256 292 333 305 336 17 331 325 240 237 283 300 304 302 272
193 195 196 199 201 200 198 197 197 196 195 196 198 197 196 196 192 188 186 188 189 191 192 192 192 197 201 201 199 198 202 206 204 198 195 197 200 199 196 201 203 202 198 204 222 276 254 234 225 213 210 207 195 178 184 185 182 204 213 197 203 203 217 217 217 218 234 236 264 272 291 305 295 311 316 305 288 276 282 145 268 279 297 309 294
194 194 199 202 200 195 194 194 193 191 193 197 199 196 194 192 191 192 191 189 188 189 191 190 192 195 198 200 200 200 206 209 207 199 194 194 196 196 190 198 202 175 153 139 208 221 229 232 232 220 209 204 194 191 193 196 202 201 204 194 198 200 205 209 209 211 215 239 252 263 291 285 282 279 267 264 271 298 309 290 269 281 309 292 291
194 197 204 202 194 190 191 193 189 191 195 196 194 194 192 191 194 195 193 191 190 188 186 189 194 196 197 197 198 203 208 211 206 197 197 195 193 191 184 190 176 152 165 189 219 220 232 235 250 247 226 209 208 204 205 208 211 214 214 204 197 190 192 195 211 191 201 222 250 224 250 265 269 246 243 267 261 249 252 253 256 271 269 281 293
196 201 205 195 189 190 192 189 190 194 191 193 193 190 188 191 196 198 196 195 193 184 188 192 193 195 196 196 199 204 210 210 202 198 196 197 194 183 169 174 172 182 198 202 217 227 234 229 219 227 228 220 203 205 207 212 215 219 219 215 209 202 183 180 204 201 162 210 250 230 207 232 262 249 248 238 261 269 255 249 247 258 268 264 260
198 203 201 192 191 191 188 188 192 192 193 191 186 183 189 195 199 199 199 197 187 188 193 190 195 194 194 195 202 206 212 208 202 198 197 196 193 163 145 161 184 200 199 201 213 227 233 223 216 214 223 216 198 191 196 213 219 218 218 212 205 201 206 204 142 142 165 205 219 234 204 207 245 259 211 218 210 275 289 283 266 252 241 250 256
199 203 198 194 192 187 186 188 193 194 190 185 183 187 192 199 201 200 197 190 193 196 192 193 191 192 194 197 203 205 209 205 200 198 198 195 179 143 157 185 220 214 213 211 216 226 230 219 214 221 217 203 192 191 201 213 202 191 198 190 181 183 165 169 194 181 179 189 188 222 224 176 227 248 252 216 239 257 259 263 260 258 247 241 246
199 200 196 193 187 186 187 190 192 190 187 185 187 193 197 200 199 197 194 195 196 198 195 192 192 193 195 197 200 205 213 202 197 199 196 185 164 160 159 171 210 198 209 216 217 227 224 216 212 213 200 198 195 195 202 200 178 180 177 187 175 146 152 167 176 174 177 189 192 209 232 215 230 249 258 237 229 238 230 245 254 245 253 289 303
202 198 195 191 189 188 187 190 189 187 187 188 193 198 198 197 199 197 195 197 201 200 199 195 193 192 193 195 200 209 212 197 195 198 189 168 157 161 149 181 214 205 211 226 233 244 220 207 203 199 195 197 203 201 202 170 169 177 185 185 143 130 139 133 142 158 158 172 186 205 216 229 230 236 246 248 247 252 255 282 328 351 352 333 297
202 196 196 192 191 189 188 188 188 187 188 192 198 198 197 200 202 193 195 198 199 201 200 195 192 191 194 197 200 209 211 194 193 193 179 156 157 163 173 193 203 206 211 221 222 221 209 189 192 198 195 199 205 203 195 159 164 174 185 184 153 136 117 85 96 103 113 125 147 182 214 238 261 272 276 265 249 237 181 357 302 22 5 319 297
202 198 198 195 193 190 189 186 187 188 190 197 198 198 200 200 200 192 197 198 202 204 197 194 194 196 194 197 199 204 210 191 188 187 164 158 160 166 184 191 199 203 220 228 208 203 196 196 189 187 190 204 203 200 180 162 174 183 180 170 159 149 155 144 120 79 85 157 163 183 286 307 297 299 294 303 296 191 145 206 224 142 242 220 240
202 200 203 199 195 190 187 187 189 191 195 198 195 197 199 199 197 193 200 202 206 200 195 197 199 198 197 199 199 200 206 186 183 176 159 161 166 165 178 188 195 205 212 212 203 197 196 202 194 189 193 203 196 183 173 174 170 177 179 172 176 187 191 163 150 132 122 63 338 14 338 311 297 301 313 318 295 209 185 199 183 171 224 249 252
203 204 205 201 194 189 188 191 193 194 197 195 195 198 195 193 192 193 199 203 202 197 197 200 197 198 195 198 199 201 195 172 180 171 160 168 171 161 170 192 212 215 208 207 200 192 188 193 200 195 197 195 160 154 173 185 186 184 156 166 182 227 168 148 157 147 167 159 246 256 262 274 306 329 337 323 306 229 190 199 187 189 214 251 257
202 206 205 198 193 193 194 195 197 199 198 194 194 192 191 193 191 192 198 199 197 195 195 195 194 191 192 197 197 196 186 170 173 169 166 171 167 157 191 188 205 206 201 201 192 183 186 195 200 195 193 167 165 180 185 187 188 168 174 164 174 176 157 149 167 161 146 164 181 216 287 341 345 319 296 299 282 279 221 223 221 206 216 238 253
203 204 203 201 200 198 199 202 202 202 197 189 188 196 197 192 190 193 194 193 192 187 174 163 152 144 160 182 188 191 177 164 153 178 170 167 171 169 177 203 202 191 191 193 184 183 186 187 197 190 177 168 175 185 188 184 179 139 163 163 151 142 153 152 139 121 142 121 106 348 336 316 308 312 301 292 273 259 249 256 259 249 233 218 217
210 210 201 197 199 199 201 200 199 199 195 193 194 196 188 189 192 191 190 186 178 166 158 154 152 158 163 175 183 155 116 135 156 169 179 175 177 175 186 200 187 185 184 184 186 186 182 188 190 171 169 166 170 173 171 163 158 158 156 149 153 145 124 125 135 134 132 124 131 260 256 263 302 291 293 283 274 262 254 255 262 256 258 248 224
179 186 194 207 207 207 205 202 197 194 191 188 190 187 184 189 188 188 185 177 166 158 154 148 148 158 169 179 139 102 117 122 146 171 155 182 187 188 194 190 172 184 179 181 177 172 169 176 167 160 162 158 153 152 153 158 161 150 148 145 137 133 125 130 142 148 141 153 189 236 267 252 236 268 260 253 256 263 270 270 274 271 263 282 279
176 183 188 189 190 189 176 183 192 195 188 184 187 190 193 187 188 186 174 168 164 158 161 161 163 170 168 158 122 118 133 140 151 158 172 187 192 199 203 183 178 165 169 177 167 172 178 166 151 149 144 136 132 132 135 137 132 141 143 145 148 119 137 148 151 142 168 197 210 230 248 234 219 232 251 260 271 276 269 285 276 274 268 241 264
179 185 181 177 175 167 169 173 174 173 171 180 188 191 192 188 183 172 167 166 166 166 169 170 173 173 170 148 140 141 149 165 167 150 157 150 178 206 204 198 182 177 173 174 176 170 167 145 126 122 123 130 131 143 151 149 131 133 141 157 147 145 148 151 155 171 202 200 203 217 226 219 227 239 255 260 258 261 271 289 318 310 333 354 345
175 174 177 178 171 168 172 170 171 174 175 178 185 191 187 181 174 172 174 172 174 176 175 177 176 171 160 154 145 147 155 163 155 145 136 145 163 187 201 213 192 177 169 145 129 108 106 114 125 128 124 132 118 116 116 129 130 144 156 166 156 158 162 176 178 190 197 200 215 229 235 241 270 284 262 240 253 265 210 247 269 273 309 319 305
182 187 183 179 178 177 180 184 181 184 183 180 181 181 181 179 180 181 182 182 179 183 182 178 171 160 153 148 149 150 158 155 156 153 151 144 155 179 196 189 179 177 153 134 122 116 115 109 107 111 121 113 107 117 122 140 152 147 153 153 161 177 193 195 203 201 215 197 214 218 255 246 256 252 261 254 251 270 256 235 231 294 310 318 357
234 213 200 190 190 183 172 132 231 200 184 179 174 175 178 184 189 197 196 189 186 179 157 126 110 117 147 154 155 159 154 174 188 167 149 151 164 172 183 186 177 170 151 133 114 110 117 120 119 128 144 147 146 143 149 147 150 139 150 162 178 176 179 177 198 216 212 188 218 220 239 234 249 255 254 265 262 263 273 339 286 219 301 103 256
281 256 239 206 134 122 128 140 134 117 143 160 146 92 38 52 90 189 185 156 148 147 146 148 155 158 156 187 176 163 182 183 152 140 138 156 173 174 174 168 164 147 143 142 137 134 142 133 158 150 157 159 159 162 169 172 167 173 193 183 178 180 192 204 216 216 191 202 217 220 234 231 247 240 228 235 274 290 324 211 274 265 283 326 312
294 296 300 210 173 162 154 148 150 152 159 162 150 134 112 53 38 27 335 175 156 157 154 153 153 154 162 178 191 202 154 142 145 136 143 157 168 170 160 154 142 140 140 127 126 144 152 161 166 168 163 167 173 174 171 170 186 188 199 191 196 201 204 206 221 204 202 214 220 224 233 224 228 222 226 234 246 278 311 234 219 227 219 264 303
317 315 316 202 165 170 164 149 145 144 149 159 160 158 151 132 57 37 44 18 154 145 145 151 161 159 157 145 138 103 137 139 136 140 148 160 169 166 151 143 144 148 160 145 138 159 166 166 170 177 171 174 180 170 167 178 183 192 186 186 210 209 200 221 206 185 204 204 217 223 219 216 219 223 224 224 225 251 277 307 328 338 329 315 277
346 353 316 222 194 179 151 145 144 143 140 139 155 148 145 135 128 99 53 57 42 40 144 158 156 154 152 149 149 151 154 147 141 144 153 156 157 162 151 146 150 153 144 149 159 160 173 173 174 174 176 182 171 170 178 179 184 188 189 197 210 207 208 220 168 187 196 203 202 211 206 207 210 214 208 197 166 262 255 268 278 269 262 317 304
25 16 1 352 346 356 75 137 134 136 139 149 162 166 162 158 140 127 125 123 94 68 28 11 99 145 150 152 142 135 138 142 148 152 150 147 150 148 138 130 139 166 166 168 163 172 168 177 174 178 184 176 164 165 172 182 185 189 193 207 220 228 212 160 154 193 196 201 201 210 201 208 203 193 227 229 224 222 250 249 230 337 321 281 282
65 69 31 344 346 337 342 10 144 142 147 146 151 160 153 150 141 137 136 133 132 129 133 73 360 353 141 138 134 134 137 141 145 141 137 137 133 129 116 114 131 218 273 221 175 168 174 177 180 181 177 173 173 170 178 181 181 190 200 203 199 174 151 161 180 177 185 188 197 203 206 199 202 201 203 211 205 221 226 251 262 219 255 289 293
33 75 77 233 261 245 297 331 343 14 108 133 122 91 70 75 117 123 127 129 127 120 106 84 115 357 65 76 103 120 126 132 135 136 140 139 139 134 137 156 160 186 195 190 184 180 175 176 173 177 173 175 165 173 176 177 187 188 174 161 169 171 166 170 170 178 187 184 194 204 206 215 204 205 200 217 228 221 205 214 240 261 248 257 273
77 54 69 41 350 355 31 18 25 67 90 101 111 116 110 79 70 96 103 107 111 117 120 129 129 97 61 53 74 85 93 108 125 138 145 151 155 154 159 164 177 174 186 186 178 169 173 181 176 170 174 171 177 177 171 178 175 167 167 171 160 156 172 173 173 175 176 194 214 210 206 215 206 193 186 209 214 209 202 207 222 249 258 281 290
79 73 54 14 339 20 49 70 72 76 73 81 82 90 95 101 100 108 113 114 123 123 128 139 137 145 135 118 94 100 104 100 94 81 91 124 147 160 154 169 168 174 179 180 178 174 177 173 174 172 177 171 171 170 167 165 162 165 169 163 162 177 171 173 179 178 188 204 211 215 212 213 203 204 206 203 192 196 210 221 210 263 310 304 320
46 51 58 50 16 2 349 27 72 93 77 65 56 66 85 101 109 109 112 121 117 113 119 121 123 119 106 115 101 114 109 117 135 151 151 168 172 164 153 158 164 170 170 172 173 172 171 174 178 170 164 170 165 162 162 161 160 164 163 159 169 162 160 173 181 195 199 212 219 215 213 217 207 202 197 180 182 190 206 223 202 183 252 298 293
55 68 55 67 73 53 19 359 345 45 108 113 112 117 112 106 94 83 93 104 108 110 113 118 119 115 127 127 127 135 133 144 157 159 165 165 175 171 162 162 167 169 167 169 175 172 170 171 167 165 164 163 160 162 161 157 162 163 158 162 162 172 187 186 194 194 208 215 219 219 216 217 211 188 190 181 185 189 198 203 203 203 220 241 270
66 72 82 79 84 82 80 64 359 330 332 108 129 127 119 114 111 113 104 105 120 123 126 127 126 137 155 159 161 158 152 156 156 162 169 169 171 171 168 169 163 166 167 170 171 172 169 163 165 162 160 163 163 158 159 159 156 153 165 167 166 180 188 196 198 206 212 216 220 221 221 211 189 168 186 206 197 193 206 172 185 210 235 247 253
54 60 84 99 91 94 105 137 151 127 341 357 88 89 95 104 123 136 142 153 149 138 138 130 125 115 128 147 172 177 150 153 155 157 160 166 167 173 168 164 166 166 168 170 170 168 168 164 163 161 163 165 160 161 154 157 161 167 164 166 178 183 186 199 203 208 209 217 220 220 214 202 190 186 169 159 174 181 165 171 186 216 246 262 284
57 56 37 29 48 68 77 354 318 159 143 76 64 116 118 125 136 122 125 118 85 89 132 135 127 125 129 140 161 97 116 140 149 151 154 159 162 162 164 168 170 174 173 170 171 168 164 164 165 169 168 170 169 164 167 173 172 169 167 171 180 185 197 200 202 210 214 216 220 218 206 192 178 160 160 168 166 159 162 175 184 206 249 271 288
81 82 80 79 86 90 89 62 341 341 81 130 181 147 113 106 109 130 124 117 131 131 83 48 120 127 129 133 117 93 127 134 143 148 151 152 159 163 165 160 157 158 162 167 170 164 159 159 164 172 171 168 167 167 171 171 168 166 171 175 180 190 195 198 203 209 205 206 209 196 187 176 164 157 161 161 156 148 176 179 173 240 278 294 298
59 61 85 95 72 58 90 114 126 124 143 161 181 195 152 150 161 165 138 136 134 128 139 144 141 133 138 152 159 148 146 146 147 147 152 156 161 164 159 159 155 157 158 168 168 163 162 161 159 159 169 171 169 175 177 169 170 171 170 173 180 193 200 204 207 201 188 188 189 182 176 167 165 163 160 161 165 167 169 179 196 242 283 286 294
59 62 52 51 85 119 92 115 161 175 179 171 168 174 157 149 157 156 148 142 143 144 141 141 147 154 157 157 157 149 146 148 151 153 150 152 155 162 165 165 161 160 160 156 159 164 164 159 159 164 171 173 176 181 177 172 170 171 172 182 186 193 191 192 181 173 188 186 181 177 172 162 163 163 167 174 184 169 167 184 199 212 221 252 267
41 37 38 39 37 25 27 27 1 7 63 113 139 131 131 135 127 130 140 144 142 144 141 146 150 157 157 160 161 159 155 154 157 160 166 165 161 158 162 163 164 168 162 156 159 160 161 159 164 167 169 168 166 166 166 164 160 163 170 172 169 164 167 173 181 185 186 187 172 159 163 159 164 177 187 158 162 171 162 189 205 237 242 240 263
52 51 39 31 34 59 79 91 86 61 91 95 42 32 53 63 125 131 125 135 131 134 133 140 145 147 149 151 151 149 152 147 149 152 150 152 155 152 159 166 175 176 166 158 160 156 155 161 163 163 159 159 160 162 159 156 152 156 158 162 163 170 180 177 176 181 180 169 168 162 160 165 174 177 179 172 174 164 173 198 204 219 237 267 272
51 48 45 46 43 30 24 40 51 65 44 31 50 62 99 105 6 194 142 145 144 145 148 150 147 146 147 149 151 148 145 146 152 152 158 156 157 164 166 169 165 163 162 166 163 163 162 164 169 169 168 166 166 160 156 156 161 160 164 168 186 186 180 178 175 183 179 171 166 162 154 156 166 178 174 170 171 176 183 186 197 251 283 274 277
61 56 55 53 57 47 43 55 54 37 37 78 90 66 349 3 29 343 111 136 132 130 130 137 143 148 148 148 154 156 157 163 167 165 163 163 161 162 161 159 158 162 166 168 171 171 170 172 175 175 173 169 163 157 157 157 160 168 171 183 192 186 184 185 183 177 174 178 173 172 165 165 166 168 172 170 170 168 176 191 193 212 239 272 279
39 53 44 39 48 43 33 32 42 46 46 30 47 94 121 138 149 134 98 59 67 98 130 137 141 143 153 159 159 162 172 172 165 162 169 168 159 150 150 156 163 172 178 173 170 176 177 175 179 179 174 165 160 160 161 164 165 172 185 191 187 187 187 182 183 193 183 170 163 157 158 163 164 166 174 173 162 163 190 189 199 217 240 241 267